Preview of NWS' New Version of Forecast
This preview is not operational and should not be used for support decisions.

Regional Weather Roundup (RWR)

Issued by National Weather Service (NWS)

                            
000
ASUS43 KDTX 180401
RWRMI 
MICHIGAN HOURLY REGIONAL WEATHER ROUNDUP
NATIONAL WEATHER SERVICE DETROIT/PONTIAC MI
1200 AM EDT THU APR 18 2019

NOTE: "FAIR" INDICATES FEW OR NO CLOUDS BELOW 12,000 FEET WITH NO
SIGNIFICANT WEATHER AND/OR OBSTRUCTION TO VISIBILITY.

MIZ047>049-052>055-059>063-066>070-074>076-081>083-180500-
SOUTHEAST LOWER MICHIGAN
  
CITY           SKY/WX    TMP DP  RH WIND       PRES   REMARKS
ADRIAN         CLOUDY    49  45  86 SE3       29.76F                  
ALMA           CLOUDY    52  48  86 S5        29.65F                  
ANN ARBOR      CLOUDY    51  48  89 E3        29.76F                  
BAD AXE        FAIR      48  44  84 SE7       29.71F                  
CARO           CLOUDY    53  46  76 SE12      29.68F                  
DETROIT CITY   CLOUDY    52  47  83 S7        29.77F                  
DETROIT        CLOUDY    52  46  80 SE5       29.77F                  
FLINT          CLOUDY    54  48  80 S17G24    29.69F                  
GROSSE ILE     CLOUDY    56  49  77 SE10G16   29.76F                  
HILLSDALE      CLOUDY    52  46  79 SE9       29.72F                  
HOWELL         CLOUDY    55  48  77 SE14      29.71F                  

CITY           SKY/WX    TMP DP  RH WIND       PRES   REMARKS
JACKSON        MOCLDY    52  48  86 E9        29.71F                  
LAMBERTVILLE   CLOUDY    49  47  95 SE3       29.76F                  
LANSING        MOCLDY    56  49  77 S18G25    29.66F                  
LAPEER         CLOUDY    53  47  80 S10G20    29.73F                  
MASON          MOCLDY    55  49  81 SE17G23   29.69F                  
MONROE         CLOUDY    51  50  98 SE6       29.76F                  
PONTIAC        CLOUDY    50  47  89 SE7       29.74F                  
PORT HOPE        N/A     46  39  76 SE22      29.71F                  
PORT HURON     FAIR      54  46  76 SE7       29.77S                  
TRI CITIES     MOCLDY    52  48  86 SE10      29.66F                  
MIDLAND        MOCLDY    46  43  91 E3        29.64F                  
TROY           CLOUDY    51  46  80 CALM      29.78F                  
SAGINAW HB     MOCLDY    54  48  82 SE10      29.66F                  
$$
MIZ043>046-050>051-056>058-064>065-071>073-077>080-180500-
SOUTHWEST LOWER MICHIGAN
  
CITY           SKY/WX    TMP DP  RH WIND       PRES   REMARKS
BATTLE CREEK   FAIR      55  48  77 SE9       29.66F                  
BENTON HARBOR  CLOUDY    71  51  49 SW13G22   29.62F                  
BIG RAPIDS     CLOUDY    51  48  89 SE9       29.58F                  
COLDWATER      FAIR      55  50  82 SE9       29.70F                  
FREMONT        MOCLDY    58  49  73 S9        29.55F                  
HOLLAND        MOCLDY    61  52  72 S15       29.59F                  
GRAND RAPIDS   MOCLDY    57  48  72 S16       29.61F                  
IONIA          FAIR      55  47  74 S14G21    29.63F                  
KALAMAZOO      FAIR      57  49  74 S9        29.66F                  
LUDINGTON      CLOUDY    56  50  81 SE13G20   29.49F                  
MARSHALL       FAIR      53  51  92 SE12      29.68F                  
MOUNT PLEASANT CLOUDY    47  46  99 SE3       29.62F                  
MUSKEGON       MOCLDY    62  50  64 S15       29.55F                  
SOUTH HAVEN    CLOUDY    67  52  57 S7        29.61F                  
$$
MIZ016>042-180500-
NORTHERN LOWER MICHIGAN
  
CITY           SKY/WX    TMP DP  RH WIND       PRES   REMARKS
ALPENA         LGT RAIN  41  39  93 SE16G25   29.71F                  
BEAVER ISLAND  LGT RAIN  39  38  97 E12G21    29.55F WCI  31          
BELLAIRE       CLOUDY    51  45  80 SE14G21   29.54F                  
CADILLAC       CLOUDY    48  47  94 SE10G21   29.57F                  
CHARLEVOIX     CLOUDY    46  43  89 SE18      29.55F                  
FRANKFORT      LGT RAIN  57  48  72 SE18G30   29.49F                  
GAYLORD        CLOUDY    42  40  92 S14       29.62F                  
HARBOR SPRINGS CLOUDY    43  42  97 E16G22    29.58F                  
HOUGHTON LAKE  CLOUDY    45  42  89 SE9       29.62F                  
MANISTEE       TSTM      53  49  86 SE7       29.52S                  
OSCODA         MIX PCPN  41  39  93 SE8       29.71F                  
PELLSTON       LGT RAIN  43  41  93 SE15G24   29.60F                  
ROGERS CITY    LGT RAIN  41  39  93 SE18G25   29.70F                  
TRAVERSE CITY  MOCLDY    50  44  80 SE16G29   29.50F                  
$$
MIZ007>008-015-180500-
EASTERN UPPER MICHIGAN
  
CITY           SKY/WX    TMP DP  RH WIND       PRES   REMARKS
KINROSS        RAIN      37  36  96 E18       29.67F WCI  27          
MACKINAC ISLAN MIX PCPN  36  36 100 E20G31    29.62F WCI  25          
NEWBERRY       LGT RAIN  37  35  91 E14       29.63F WCI  29          
S. S. MARIE    RAIN      40  35  83 E9G18     29.72F WCI  34          
MUNISING         N/A     37  34  89 E8        29.59F WCI  31          
$$
MIZ004>006-011>014-085-180500-
CENTRAL UPPER MICHIGAN
  
CITY           SKY/WX    TMP DP  RH WIND       PRES   REMARKS
MANISTIQUE     MIX PCPN  39  33  80 E10G17    29.57F WCI  32          
ESCANABA       LGT RAIN  39  38  96 NE9       29.52F FOG     WCI  33  
MENOMINEE      RAIN      41  40  96 E15       29.52F                  
SAWYER-GWINN   RAIN      37  35  93 NE9       29.57F WCI  30          
$$
MIZ001>003-009>011-084-180500-
WESTERN UPPER MICHIGAN
  
CITY           SKY/WX    TMP DP  RH WIND       PRES   REMARKS
IRON MOUNTAIN  LGT RAIN  39  36  89 VRB5      29.52F                  
HOUGHTON       LGT RAIN  36  33  89 E15G24    29.64F WCI  27          
COPPER HARBOR    N/A     35  32  88 SE10G17   29.72F WCI  27          
IRONWOOD       LGT RAIN  37  36  96 NE5       29.61F WCI  33          
$$

ABBREVIATIONS USED IN REMARKS
   TC - TEMPERATURE IN CELSIUS
  WCI - WIND CHILL INDEX
   HX - HEAT INDEX
  VSB - VISIBILITY